• In Hungary
  • List of Countries
  • For 7 days
  • Water Temperature
  • Satellite Maps
  • Weather Map
  • News
  • Weather Widgets
  • user-avatar
    Login

    Hourly Weather Mayskiy

    Today, 16 July, Monday

    Time Temperature Precipitation Wind Pressure Humidity
    00:00 +21°C° 0 mm 1 mps 748 mmHg 95%
    01:00 +20°C° 0 mm 1 mps 748 mmHg 95%
    02:00 +20°C° 0 mm 1 mps 748 mmHg 96%
    03:00 +20°C° 0 mm 1 mps 748 mmHg 96%
    04:00 +20°C° 0 mm 1 mps 748 mmHg 95%
    05:00 +21°C° 0 mm 1 mps 748 mmHg 93%
    06:00 +21°C° 0 mm 2 mps 748 mmHg 92%
    07:00 +23°C° 0 mm 2 mps 748 mmHg 84%
    08:00 +25°C° 0 mm 2 mps 748 mmHg 75%
    09:00 +27°C° 0 mm 2 mps 748 mmHg 67%
    10:00 +28°C° 0.1 mm 2 mps 748 mmHg 62%
    11:00 +29°C° 0.1 mm 2 mps 748 mmHg 57%
    12:00 +31°C° 0.1 mm 2 mps 747 mmHg 52%
    13:00 +30°C° 0.2 mm 2 mps 747 mmHg 55%
    14:00 +30°C° 0.2 mm 2 mps 747 mmHg 58%
    15:00 +30°C° 0.2 mm 3 mps 747 mmHg 61%
    16:00 +29°C° 0.2 mm 3 mps 747 mmHg 66%
    17:00 +28°C° 0.2 mm 2 mps 747 mmHg 71%
    18:00 +27°C° 0.2 mm 2 mps 747 mmHg 76%
    19:00 +26°C° 0 mm 2 mps 747 mmHg 82%
    20:00 +24°C° 0 mm 2 mps 747 mmHg 89%
    21:00 +23°C° 0 mm 2 mps 747 mmHg 95%
    22:00 +21°C° 0 mm 2 mps 747 mmHg 96%
    23:00 +21°C° 0 mm 2 mps 747 mmHg 97%

    Tomorrow, 17 July, Tuesday

    Time Temperature Precipitation Wind Pressure Humidity
    00:00 +21°C° 0 mm 2 mps 747 mmHg 97%
    01:00 +20°C° 0 mm 2 mps 747 mmHg 98%
    02:00 +20°C° 0 mm 2 mps 747 mmHg 98%
    03:00 +20°C° 0 mm 2 mps 747 mmHg 98%
    04:00 +20°C° 0 mm 2 mps 747 mmHg 96%
    05:00 +21°C° 0 mm 2 mps 747 mmHg 94%
    06:00 +21°C° 0 mm 2 mps 747 mmHg 92%
    07:00 +24°C° 0.1 mm 3 mps 747 mmHg 86%
    08:00 +25°C° 0.1 mm 3 mps 746 mmHg 79%
    09:00 +27°C° 0.1 mm 4 mps 746 mmHg 72%
    10:00 +28°C° 0.1 mm 4 mps 746 mmHg 66%
    11:00 +29°C° 0.1 mm 4 mps 746 mmHg 60%
    12:00 +30°C° 0.1 mm 4 mps 746 mmHg 53%
    13:00 +30°C° 0.2 mm 4 mps 746 mmHg 54%
    14:00 +30°C° 0.2 mm 5 mps 746 mmHg 55%
    15:00 +30°C° 0.2 mm 5 mps 745 mmHg 55%
    16:00 +29°C° 0 mm 4 mps 745 mmHg 59%
    17:00 +28°C° 0 mm 4 mps 745 mmHg 63%
    18:00 +27°C° 0 mm 3 mps 745 mmHg 67%
    19:00 +26°C° 0 mm 3 mps 745 mmHg 72%
    20:00 +25°C° 0 mm 3 mps 745 mmHg 77%
    21:00 +22°C° 0 mm 3 mps 745 mmHg 82%
    22:00 +22°C° 0 mm 3 mps 745 mmHg 84%
    23:00 +21°C° 0 mm 3 mps 745 mmHg 86%

    Day after tomorrow, 18 July, Wednesday

    Time Temperature Precipitation Wind Pressure Humidity
    00:00 +20°C° 0 mm 3 mps 744 mmHg 88%
    01:00 +20°C° 0.1 mm 4 mps 744 mmHg 89%
    02:00 +20°C° 0.1 mm 4 mps 744 mmHg 89%
    03:00 +20°C° 0.1 mm 4 mps 744 mmHg 89%
    04:00 +20°C° 0.1 mm 4 mps 744 mmHg 89%
    05:00 +20°C° 0.1 mm 5 mps 743 mmHg 90%
    06:00 +20°C° 0.1 mm 5 mps 743 mmHg 90%
    07:00 +20°C° 0.5 mm 5 mps 743 mmHg 91%
    08:00 +20°C° 0.5 mm 5 mps 743 mmHg 93%
    09:00 +20°C° 0.5 mm 5 mps 743 mmHg 95%
    10:00 +19°C° 0.8 mm 5 mps 743 mmHg 95%
    11:00 +19°C° 0.8 mm 5 mps 744 mmHg 95%
    12:00 +19°C° 0.8 mm 5 mps 744 mmHg 95%
    13:00 +20°C° 0.4 mm 4 mps 744 mmHg 95%
    14:00 +20°C° 0.4 mm 4 mps 744 mmHg 94%
    15:00 +20°C° 0.4 mm 3 mps 744 mmHg 93%
    16:00 +20°C° 0.5 mm 3 mps 744 mmHg 93%
    17:00 +21°C° 0.5 mm 2 mps 744 mmHg 93%
    18:00 +21°C° 0.5 mm 2 mps 744 mmHg 93%
    19:00 +21°C° 0.3 mm 1 mps 744 mmHg 95%
    20:00 +21°C° 0.3 mm 1 mps 745 mmHg 96%
    21:00 +19°C° 0.3 mm 0 mps 745 mmHg 98%
    22:00 +20°C° 0 mm 1 mps 745 mmHg 98%
    23:00 +20°C° 0 mm 1 mps 745 mmHg 98%

    19 July, Thursday

    Time Temperature Precipitation Wind Pressure Humidity
    00:00 +20°C° 0 mm 1 mps 745 mmHg 98%
    01:00 +20°C° 0 mm 1 mps 745 mmHg 97%
    02:00 +20°C° 0 mm 1 mps 745 mmHg 97%
    03:00 +19°C° 0 mm 1 mps 746 mmHg 97%
    04:00 +20°C° 0 mm 1 mps 746 mmHg 96%
    05:00 +20°C° 0 mm 2 mps 746 mmHg 95%
    06:00 +20°C° 0 mm 2 mps 747 mmHg 93%
    07:00 +23°C° 0 mm 2 mps 747 mmHg 85%
    08:00 +25°C° 0 mm 2 mps 747 mmHg 78%
    09:00 +27°C° 0 mm 2 mps 747 mmHg 70%
    10:00 +28°C° 0.1 mm 2 mps 747 mmHg 65%
    11:00 +29°C° 0.1 mm 2 mps 747 mmHg 60%
    12:00 +30°C° 0.1 mm 2 mps 747 mmHg 55%
    13:00 +30°C° 0.5 mm 2 mps 748 mmHg 57%
    14:00 +30°C° 0.5 mm 2 mps 748 mmHg 59%
    15:00 +29°C° 0.5 mm 2 mps 748 mmHg 61%
    16:00 +29°C° 0.3 mm 2 mps 748 mmHg 66%
    17:00 +28°C° 0.3 mm 2 mps 748 mmHg 71%
    18:00 +28°C° 0.3 mm 1 mps 748 mmHg 76%
    19:00 +26°C° 0.1 mm 1 mps 748 mmHg 81%
    20:00 +24°C° 0.1 mm 1 mps 748 mmHg 85%
    21:00 +21°C° 0.1 mm 2 mps 748 mmHg 90%
    22:00 +22°C° 0 mm 1 mps 748 mmHg 91%
    23:00 +21°C° 0 mm 1 mps 748 mmHg 92%

    20 July, Friday

    Time Temperature Precipitation Wind Pressure Humidity
    00:00 +21°C° 0 mm 1 mps 748 mmHg 94%
    01:00 +20°C° 0.5 mm 1 mps 748 mmHg 94%
    02:00 +20°C° 0.5 mm 1 mps 748 mmHg 95%
    03:00 +20°C° 0.5 mm 1 mps 748 mmHg 96%
    04:00 +20°C° 0 mm 1 mps 748 mmHg 95%
    05:00 +21°C° 0 mm 1 mps 748 mmHg 94%
    06:00 +22°C° 0 mm 1 mps 748 mmHg 92%
    07:00 +23°C° 0 mm 1 mps 748 mmHg 85%
    08:00 +25°C° 0 mm 2 mps 748 mmHg 77%
    09:00 +27°C° 0 mm 2 mps 748 mmHg 69%
    10:00 +28°C° 0.1 mm 2 mps 748 mmHg 63%
    11:00 +29°C° 0.1 mm 2 mps 748 mmHg 57%
    12:00 +31°C° 0.1 mm 2 mps 748 mmHg 51%
    13:00 +31°C° 0.2 mm 2 mps 748 mmHg 51%
    14:00 +31°C° 0.2 mm 2 mps 748 mmHg 50%
    15:00 +31°C° 0.2 mm 2 mps 748 mmHg 50%
    16:00 +30°C° 0.2 mm 2 mps 748 mmHg 56%
    17:00 +29°C° 0.2 mm 2 mps 748 mmHg 62%
    18:00 +29°C° 0.2 mm 2 mps 747 mmHg 68%
    19:00 +27°C° 0.1 mm 2 mps 748 mmHg 73%
    20:00 +25°C° 0.1 mm 1 mps 748 mmHg 79%
    21:00 +23°C° 0.1 mm 1 mps 748 mmHg 84%
    22:00 +22°C° 0.9 mm 1 mps 748 mmHg 87%
    23:00 +22°C° 0.9 mm 1 mps 747 mmHg 91%

    21 July, Saturday

    Time Temperature Precipitation Wind Pressure Humidity
    00:00 +21°C° 0.9 mm 1 mps 747 mmHg 94%
    01:00 +21°C° 0 mm 1 mps 748 mmHg 94%
    02:00 +21°C° 0 mm 1 mps 748 mmHg 95%
    03:00 +20°C° 0 mm 1 mps 748 mmHg 95%
    04:00 +21°C° 0 mm 1 mps 748 mmHg 94%
    05:00 +21°C° 0 mm 2 mps 748 mmHg 93%
    06:00 +21°C° 0 mm 2 mps 748 mmHg 92%
    07:00 +24°C° 0.8 mm 2 mps 748 mmHg 88%
    08:00 +25°C° 0.8 mm 2 mps 748 mmHg 84%
    09:00 +27°C° 0.8 mm 2 mps 748 mmHg 79%
    10:00 +28°C° 0.2 mm 3 mps 748 mmHg 72%
    11:00 +29°C° 0.2 mm 3 mps 748 mmHg 64%
    12:00 +30°C° 0.2 mm 3 mps 748 mmHg 57%
    13:00 +30°C° 0 mm 3 mps 748 mmHg 57%
    14:00 +31°C° 0 mm 3 mps 748 mmHg 56%
    15:00 +31°C° 0 mm 3 mps 748 mmHg 56%
    16:00 +29°C° 1 mm 3 mps 748 mmHg 66%
    17:00 +28°C° 1 mm 3 mps 748 mmHg 75%
    18:00 +26°C° 1 mm 2 mps 748 mmHg 84%
    19:00 +25°C° 0.9 mm 2 mps 748 mmHg 88%
    20:00 +24°C° 0.9 mm 2 mps 748 mmHg 91%
    21:00 +23°C° 0.9 mm 2 mps 748 mmHg 94%
    22:00 +23°C° 1.5 mm 2 mps 748 mmHg 95%
    23:00 +21°C° 1.5 mm 3 mps 748 mmHg 96%
    Show more